Zenica, Bosnia and Herzegovina
Current Conditions -  °F | °C
As of 7:30 PM on Saturday 25 Oct 2014 (Local Time) from LQSA Reporting Station
Overcast Overcast  
Wind Chill: 45°   Ceiling: 2800
Heat Index: 45°   Visibility: 6mi
Dew Point: 39°   Wind: 2mph
Humidity: 81%   Direction: NA
Pressure: 30.24"   Gusts: NA
Location:  44.2°N, 17.91°E
Report Text: LQSA 251730Z VRB02KT 9999 OVC028 07/04 Q1024 NOSIG
Loading
Personal Weather Stations






























Interactive Weather Map
Tropical Storm Tracking
New forecast layout! Learn more

10-Day Weather Forecast

Advertisements
Track Severe Weather on mobile